Vous êtes sur la page 1sur 7

Trail SNSM 2019

Classement général Grand Raid


Clt gl Dossar Nom Prénom Année Temps Caté clt/cat
1 121 ANDRES CEDRIC 1974 02:02:32 GRHV1 1
2 199 DEUDON JEREMIE 1990 02:04:00 GRHS 1
3 49 LENAFF PASCAL 1979 02:04:13 GRHV1 2
4 159 LACROSE GILLES 1984 02:04:45 GRHS 2
5 209 SAMANICH YoHAN 1984 02:07:26 GRHS 3
6 33 MARICHEZ BENOÎT 1987 02:10:23 GRHS 4
7 126 MARTIN TEVA 1988 02:14:22 GRHS 5
8 187 PLANES ANTOINE 1962 02:14:56 GRHV2 1
9 185 COLNET FREDERIC 1973 02:17:51 GRHV1 3
10 55 WALBROU KILLIAN 1985 02:18:44 GRHS 6
11 2 GUILLAUME PASCAL 1972 02:18:53 GRHV1 4
12 210 TENDRON Leopold 1991 02:19:10 GRHS 7
13 218 CORROYER STEEVE 1986 02:19:35 GRHS 8
14 171 HERZOG HUGUES 1985 02:19:41 GRHS 9
15 143 CORDESSE DAMIEN 1985 02:20:18 GRHS 10
16 147 GELLENONCOU FRANCK 1987 02:20:57 GRHS 11
17 163 BRIDEL VALENTIN 1995 02:21:17 GRHS 12
18 67 MERAT HERVÉ 1978 02:21:37 GRHV1 5
19 62 TRAVERS BENOIT 1977 02:22:01 GRHV1 6
20 205 LECLERC BAPTISTE 1990 02:22:10 GRHS 13
21 47 PERRIN CHRISTOPH 1973 02:22:11 GRHV1 7
22 48 FANTINO LUDOVIC 1975 02:23:58 GRHV1 8
23 8 GENEST ALEXIS 1981 02:24:25 GRHS 14
24 114 PAINSONNEAU SIMON 1977 02:24:27 GRHV1 9
25 19 JONATHAN NICOL 1984 02:24:40 GRHS 15
26 151 CAVELL MARIE- 1979 02:24:51 GRFV1 1
27 102 AFFRET ETIENNE 1987 02:25:00 GRHS 16
28 175 MINATCHI ERIC 1986 02:25:43 GRHS 17
29 127 MARGAS ARNAUD 1989 02:25:53 GRHS 18
30 87 POIREAU MATHIEU 1982 02:26:59 GRHS 19
31 181 LAPOINTE TANGUY 1990 02:27:30 GRHS 20
32 59 POTOCZNY ROMAIN 1994 02:27:30 GRHS 21

1
Trail SNSM 2019
Classement général Grand Raid
Clt gl Dossar Nom Prénom Année Temps Caté clt/cat
33 160 ORI DYLAN 2000 02:28:05 GRHJ 1
34 27 JOLIVET SÉBASTIEN 1983 02:29:25 GRHS 22
35 119 FLAMENT ARNAUD 1989 02:31:43 GRHS 23
36 139 LEHEUTRE XAVIER 1969 02:32:13 GRHV2 2
37 11 LE CALVEZ YOHAN 1990 02:33:01 GRHS 24
38 105 CABON MICKAEL 1973 02:33:46 GRHV1 10
39 142 DEFOSSE MAXIME 1987 02:34:48 GRHS 25
40 192 BOITTIAUX OLIVIER 1971 02:35:27 GRHV1 11
41 56 WEIDIG YOANN 1986 02:35:47 GRHS 26
42 195 SCHLEGEL FRANCK 1968 02:36:13 GRHV2 3
43 88 MESSE THOMAS 1986 02:36:20 GRHS 27
44 4 HIRTZ FRANCK 1969 02:36:20 GRHV2 4
45 118 ROUSSET MATHILDE 1993 02:36:24 GRFS 1
46 194 GUYOT CHRISTOPH 1981 02:36:24 GRHS 28
47 111 DEWYNTER AMAURY 1987 02:37:20 GRHS 29
48 7 PAYET OLIVIER 1975 02:39:16 GRHV1 12
49 82 LORMEAU CHARLES 1971 02:39:16 GRHV1 13
50 90 VAKOUME JOANÈS 1987 02:40:02 GRHS 30
51 36 KABOER DEBORAH 1983 02:40:54 GRFS 2
52 141 LE LEANNEC PASCAL 1978 02:41:33 GRHV1 14
53 189 JAFFRE MALWEN 1994 02:42:34 GRHS 31
54 50 BASOL QUENTIN 1998 02:42:51 GRHS 32
55 173 GALLI STÉPHANE 1969 02:43:19 GRHV2 5
56 42 DIO JEAN-PAUL 1959 02:43:55 GRHV3 1
57 52 ALLIER SERGE 1979 02:43:56 GRHV1 15
58 134 RIVAUD DELPHINE 1978 02:44:34 GRFV1 2
59 108 LESNARD FRANÇOIS 1971 02:45:05 GRHV1 16
60 61 COUILLAUD CHRISTOPH 1976 02:46:13 GRHV1 17
61 32 BOUQUET PHILIPPE 1983 02:46:55 GRHS 33
62 81 DUJARDIN CLÉMENTINE1979 02:46:56 GRFV1 3
63 125 CHEVAL CHRISTIAN 1955 02:47:13 GRHV3 2
64 193 GUILLON ERIC 1968 02:47:50 GRHV2 6

2
Trail SNSM 2019
Classement général Grand Raid
Clt gl Dossar Nom Prénom Année Temps Caté clt/cat
65 78 ONDET CHRISTIAN 1963 02:47:52 GRHV2 7
66 137 VIBERT PATRICE 1964 02:48:36 GRHV2 8
67 203 MALEZIEUX STEVIE 1979 02:48:45 GRHV1 18
68 112 HUET VINCENT 1984 02:49:07 GRHS 34
69 40 CHABLE JULIEN 1981 02:49:14 GRHS 35
70 95 DE KNOP CANDICE 1984 02:49:16 GRFS 3
71 152 KOKOT FRÉDÉRIC 1967 02:49:54 GRHV2 9
72 129 LE FLECHER DOMINIQUE 1966 02:50:07 GRFV2 1
73 162 KLOTZ ALEX 1988 02:50:11 GRHS 36
74 154 LOUDES JEAN-STEPH 1987 02:50:25 GRHS 37
75 190 MANSOURI DJAMEL 1962 02:50:38 GRHV2 10
76 196 PRéVOST MICHAËL 1984 02:50:56 GRHS 38
77 131 CHAILLEUX LAURENT 1969 02:51:07 GRHV2 11
78 146 CARRASCO ROAN 1977 02:51:34 GRHV1 19
79 145 NATIVEL PATRICK 1971 02:51:51 GRHV1 20
80 16 PARIS GODEFFROY 1988 02:52:04 GRHS 39
81 184 JONNARD DELPHINE 1976 02:52:06 GRFV1 4
82 204 DUPE BENOIT 1975 02:52:19 GRHV1 21
83 200 PERRIER HERVÉ 1973 02:52:20 GRHV1 22
84 201 SCHMITT JEAN-FREDE 1978 02:53:30 GRHV1 23
85 26 MAUHOURAT THIERRY 1960 02:53:55 GRHV2 12
86 20 CHAMBARLHAC FABIEN 1976 02:54:19 GRHV1 24
87 106 LEROUX MARION 1988 02:54:35 GRFS 4
88 25 THEVENON PIERRE 1972 02:54:35 GRHV1 25
89 188 FELLMANN SÉBASTIEN 1981 02:55:06 GRHS 40
90 35 VIGNE JONATHAN 1987 02:55:38 GRHS 41
91 53 CHÂTEAU LILIAN 1980 02:55:52 GRHS 42
92 51 PENVERN CHRISTOPH 1971 02:57:19 GRHV1 26
93 86 FONTAINE DAVID 1976 02:57:22 GRHV1 27
94 79 DECAIX JEAN-PIERR 1958 02:58:26 GRHV3 3
95 72 MILLION NICOLAS 1975 02:58:36 GRHV1 28
96 94 DENAMIEL EDOUARD 1977 02:59:35 GRHV1 29

3
Trail SNSM 2019
Classement général Grand Raid
Clt gl Dossar Nom Prénom Année Temps Caté clt/cat
97 172 FILIPE JORGE 1965 02:59:52 GRHV2 13
98 24 APALOO KOKOU 1981 03:00:02 GRHS 43
99 23 GUILLAMAUD AURIANE 1991 03:00:02 GRFS 5
100 21 GAYRAL SANDRA 1982 03:00:19 GRFS 6
101 136 ALLO FRANCK 1977 03:00:48 GRHV1 30
102 169 BOULET STEPHANE 1978 03:01:03 GRHV1 31
103 161 ALFONSI NICOLAS 1988 03:01:13 GRHS 44
104 58 CHIROL ERIC 1971 03:01:44 GRHV1 32
105 135 VITU DAVID 1969 03:01:56 GRHV2 14
106 183 RIGAUD SÉBASTIEN 1986 03:02:25 GRHS 45
107 124 LEMARCHAND ALEXIS 1984 03:02:50 GRHS 46
108 167 BONTE BASTIEN 1980 03:03:15 GRHS 47
109 57 VILAISARN SAKDAVANH 1968 03:03:49 GRHV2 15
110 153 RAIS ABDELKRIM 1976 03:04:33 GRHV1 33
111 179 TROJANI SYLVAIN 1984 03:05:03 GRHS 48
112 178 DURAND BERTRAND 1978 03:05:21 GRHV1 34
113 182 NANTET LUDOVIC 1980 03:05:29 GRHS 49
114 109 FORFAIT LAURENT 1977 03:06:08 GRHV1 35
115 60 MOURET BRUNO 1984 03:06:14 GRHS 50
116 14 GACON PASCALE 1983 03:06:29 GRFS 7
117 206 LEDUC TABATHA 2001 03:06:29 GRFJ 1
118 176 GRAIL FLORIAN 1987 03:06:32 GRHS 51
119 38 PIERRE DIT PHILIPPE 1970 03:06:48 GRHV1 36
120 149 MASSON HELENE 1988 03:07:14 GRFS 8
121 54 USUBIAN LEO 1997 03:08:48 GRHS 52
122 148 FARGIER CYRILLE 1968 03:09:57 GRHV2 16
123 156 GEORGES CHARLENE 1982 03:09:57 GRFS 9
124 155 FRERE JOSSELIN 1982 03:10:18 GRHS 53
125 68 LOUVIER PHILIPPE 1961 03:10:22 GRHV2 17
126 31 FELIX JEROME 1971 03:13:04 GRHV1 37
127 45 LETOCART CHRISTIAN 1966 03:13:24 GRHV2 18
128 71 TAKE NATHALIE 1967 03:13:25 GRFV2 2

4
Trail SNSM 2019
Classement général Grand Raid
Clt gl Dossar Nom Prénom Année Temps Caté clt/cat
129 116 JURET INGRID 1974 03:13:46 GRFV1 5
130 216 CAVALCA GUILLAUME 1972 03:13:51 GRHV1 38
131 13 NEMOADJOU MARTIAL 1979 03:14:25 GRHV1 39
132 166 COLLANGE AMANDINE 1981 03:14:59 GRFS 10
133 96 UBERTINI MARIANNE 1961 03:15:01 GRFV2 3
134 12 NIZIERS VALÉRIE 1963 03:15:46 GRFV2 4
135 10 VALET MÉDÉE-ANN 1990 03:17:01 GRFS 11
136 92 ROBERT-TRAEG JEAN-LOUP 1978 03:17:08 GRHV1 40
137 177 BERTRAND MÉLANIE 1981 03:19:46 GRFS 12
138 144 GUIHO PATRICE 1967 03:19:57 GRHV2 19
139 186 COLNET CHRISTINE 1969 03:20:37 GRFV2 5
140 46 PAILLANDI EVRICK 1980 03:21:24 GRHS 54
141 69 BEAUFILS LAURA 1988 03:23:17 GRFS 13
142 113 DEAL PIERRE 1982 03:23:40 GRHS 55
143 98 SPIES LANDRY 1981 03:23:41 GRHS 56
144 138 GOURINAT ANN-CLAIRE 1980 03:24:14 GRFS 14
145 130 CHAUVIN GWENOLA 1978 03:25:10 GRFV1 6
146 164 BONATON CHARLOTTE 1981 03:25:52 GRFS 15
147 165 BONATON DAVID 1974 03:25:53 GRHV1 41
148 64 SAVREUX SYLVIE 1978 03:26:00 GRFV1 7
149 63 SAUVé LAURENT 1979 03:26:00 GRHV1 42
150 168 LADRECH FRANCK 1973 03:26:10 GRHV1 43
151 123 SANDRAS DIDIER 1959 03:27:08 GRHV3 4
152 170 VAN STIPHOUT JEAN MARC 1959 03:27:08 GRHV3 5
153 132 LELONG DOMINIQUE 1973 03:28:37 GRFV1 8
154 29 BUONO THIERRY 1968 03:30:57 GRHV2 20
155 150 AMEDEO NATHALIE 1984 03:32:06 GRFS 16
156 211 CORRE Gérard 1972 03:32:20 GRHV1 44
157 212 ARDOINO MAGALI 1977 03:32:21 GRFV1 9
158 75 BOUEDO AGATHE 1988 03:32:23 GRFS 17
159 65 SETTIPANI LUC 1963 03:32:44 GRHV2 21
160 128 TESSIER PASCALE 1959 03:33:26 GRFV3 1

5
Trail SNSM 2019
Classement général Grand Raid
Clt gl Dossar Nom Prénom Année Temps Caté clt/cat
161 70 BEAUFILS PATRICK 1984 03:34:42 GRHS 57
162 100 COTTEBRUNE CATHERINE 1957 03:35:52 GRFV3 2
163 76 ROBERT-TRAEG OLIVIER 1970 03:36:05 GRHV1 45
164 43 LECAILLE LAURENT 1966 03:36:10 GRHV2 22
165 213 RAMI FRED 1973 03:36:37 GRHV1 46
166 15 ROVINOT ANDY 1985 03:36:51 GRHS 58
167 84 MEUNIER JEAN-MICHE 1958 03:37:43 GRHV3 6
168 174 RIVOALLAN ANNAIG 1975 03:38:15 GRFV1 10
169 180 TURIHONO TUMUKIVA 1971 03:40:00 GRHV1 47
170 97 SAID AURORE 1980 03:40:00 GRFS 18
171 80 PICCININ MARINA 1977 03:47:29 GRFV1 11
171 198 SCHMITT AUDREY 1977 03:47:29 GRFV1 11
173 214 COLLET MARIE 1966 03:47:53 GRFV2 6
174 74 LESIGNAC KATY 1973 03:47:54 GRFV1 13
175 215 FOURNIER Michel 1955 03:48:42 GRHV3 7
176 197 DE ROFFIGNAC CHRISTELLE 1973 03:48:53 GRFV1 14
177 202 MARTIN-PERIDIE PHILIPPE 1954 03:49:07 GRHV3 8
178 3 SEIVERT FRANÇOISE 1960 03:51:22 GRFV2 7
179 1 JEHANNE ANTOINE 1979 03:51:59 GRHV1 48
180 85 MEUNIER FRANÇOISE 1962 03:53:08 GRFV2 8
181 41 ALLEGRET CYRILLE 1958 03:53:48 GRHV3 9
182 73 MULLER FABRICE 1962 03:54:36 GRHV2 23
183 207 BEDAS ANDRÉ 1944 03:56:03 GRHV3 10
184 217 LEGOFF YVES 1975 04:01:23 GRHV1 49
185 83 LUCIEN ANDRÉ 1983 04:02:10 GRHS 59
186 110 ARPAILLANGE COLETTE 1967 04:03:05 GRFV2 9
187 103 VENTURA DIDIER 1956 04:05:52 GRHV3 11
188 140 MEL MARYLINE 1978 04:12:14 GRFV1 15
189 5 HIRTZ SABATIER FLORENCE 1969 04:12:17 GRFV2 10
190 39 BENOIT MARILYNE 1982 04:13:40 GRFS 19
191 133 FAUCHER ISABELLE 1968 04:23:19 GRFV2 11
192 107 ROLLAND DOMINIQUE 1976 04:23:21 GRFV1 16

6
Trail SNSM 2019
Classement général Grand Raid
Clt gl Dossar Nom Prénom Année Temps Caté clt/cat
193 37 CREVISSIER GUY 1948 04:30:56 GRHV3 12
194 191 BRESIL BRUNO 1953 04:44:12 GRHV3 13
195 115 BRUNAUX MAROUSSIA 1993 04:46:56 GRFS 20
196 77 COTRINA STEPHANI 1982 04:48:59 GRFS 21
197 101 LEGUEN FABIENNE 1970 04:52:44 GRFV1 17
198 18 GENTY ELISABETH 1961 05:02:37 GRFV2 12
199 17 GENTY PIERRE-HEN 1959 05:02:39 GRHV3 14
200 91 BONNACE CHRISTIANE 1952 05:08:43 GRFV3 3
201 120 TODORI GEORGES 1942 05:08:43 GRHV3 15
202 6 FLAHAULT JENNY 1961 05:39:53 GRFV2 13
203 157 DION ARIELLE 1962 06:09:27 GRFV2 14
Nombre d'inscrits: 203